User: anonymous   Login
Location: Unspecified
(17.6330°N, 0.0000°E)
Time: 16:51:46
(UTC+00:00)
Language:

SRMSAT - Orbit

View from above orbital plane
View from above orbital plane
View from above satellite
View from above satellite

Ground track
Ground track

The orbit data is extracted from the following two-line orbital elements,

1 37841U 11058D   19291.45749392 +.00000287 +00000-0 +12345-4 0  9999
2 37841 019.9735 015.6627 0011938 093.8976 356.3538 14.10641084413819
Epoch (UTC): 18 October 2019 10:58:47
Eccentricity: 0.0011938
inclination: 19.9735°
perigee height: 848 km
apogee height: 866 km
right ascension of ascending node: 15.6627°
argument of perigee: 93.8976°
revolutions per day: 14.10641084
mean anomaly at epoch: 356.3538°
orbit number at epoch: 41381

The dashed part of the orbit path shows where the satellite is in the earth's shadow,  

DLR